Weather History for Deadhorse, AK

Change the Weather History Date:

Wednesday, February 13, 2013

  Actual Average Record
Temperature  
Mean Temperature -22 °F -  
Max Temperature -16 °F -9 °F 34 °F (1989)
Min Temperature -27 °F -19 °F -47 °F (1987)
Degree Days  
Heating Degree Days 86    
Moisture  
Dew Point -27 °F    
Average Humidity 72    
Maximum Humidity 77    
Minimum Humidity 66    
Precipitation  
Precipitation 0.00 in - - ()
Sea Level Pressure  
Sea Level Pressure 30.01 in    
Wind  
Wind Speed 5 mph (ENE)    
Max Wind Speed 14 mph    
Max Gust Speed -    
Visibility 10 miles    
Events      
Averages and records for this station are not official NWS values.
T = Trace of Precipitation, MM = Missing Value Source: NWS Daily Summary

Daily Weather History Graph

Daily Weather History Graph

Search for Another Location

Airport:

Trip Planner

Search our weather history database for the weather conditions in past years. The results will help you decide how hot, cold, wet, or windy it might be!

Date:

Astronomy

Feb. 13, 2013 Rise Set
Actual Time 9:36 AM AKST 4:41 PM AKST
Civil Twilight 8:25 AM AKST 5:52 PM AKST
Nautical Twilight 7:12 AM AKST 7:05 PM AKST
Astronomical Twilight 6:01 AM AKST 8:17 PM AKST
Moon 8:30 AM AKST (2/13) 11:59 PM AKST (2/13)
Length of Visible Light 9h 27m
Length of Day
7h 04m
Waxing Crescent, 15% of the Moon is Illuminated
Feb 13
Waxing Crescent
Feb 17
First Quarter
Feb 25
Full
Mar 4
Last Quarter
Mar 11
New

Hourly Weather History & Observations

Time (AKST) Temp. Windchill Dew Point Humidity Pressure Visibility Wind Dir Wind Speed Gust Speed Precip Events Conditions
12:53 AM -17.0 °F - -24.0 °F 70% 29.97 in 10.0 mi Calm Calm - N/A   Overcast
1:53 AM -16.1 °F - -22.0 °F 74% 29.97 in 10.0 mi Calm Calm - N/A   Overcast
2:53 AM -18.0 °F - -24.0 °F 74% 29.99 in 10.0 mi Calm Calm - N/A   Overcast
3:53 AM -16.1 °F - -22.0 °F 74% 29.99 in 10.0 mi Calm Calm - N/A   Overcast
4:53 AM -17.0 °F -31.7 °F -23.1 °F 74% 29.99 in 10.0 mi East 5.8 mph - N/A   Mostly Cloudy
5:53 AM -20.0 °F -33.3 °F -26.0 °F 74% 29.98 in 10.0 mi ESE 4.6 mph - N/A   Clear
6:53 AM -23.1 °F -38.9 °F -29.0 °F 74% 29.98 in 10.0 mi ESE 5.8 mph - N/A   Clear
7:53 AM -24.0 °F -40.0 °F -29.0 °F 77% 29.99 in 10.0 mi East 5.8 mph - N/A   Clear
8:53 AM -26.0 °F -42.4 °F -32.1 °F 73% 29.99 in 10.0 mi East 5.8 mph - N/A   Clear
9:53 AM -25.1 °F -41.3 °F -31.0 °F 74% 30.00 in 10.0 mi East 5.8 mph - N/A   Clear
10:53 AM -27.0 °F -41.5 °F -32.1 °F 77% 30.01 in 10.0 mi East 4.6 mph - N/A   Clear
11:53 AM -25.1 °F -43.1 °F -32.1 °F 70% 30.01 in 10.0 mi East 6.9 mph - N/A   Clear
12:53 PM -24.0 °F -40.0 °F -32.1 °F 66% 30.02 in 10.0 mi East 5.8 mph - N/A   Clear
1:53 PM -22.0 °F -39.4 °F -29.0 °F 70% 30.03 in 10.0 mi ENE 6.9 mph - N/A   Clear
2:53 PM -22.0 °F -41.0 °F -29.0 °F 70% 30.03 in 10.0 mi ENE 8.1 mph - N/A   Clear
3:53 PM -18.9 °F -39.8 °F -26.0 °F 70% 30.03 in 10.0 mi NE 10.4 mph - N/A   Clear
4:53 PM -18.0 °F -40.7 °F -24.0 °F 74% 30.04 in 8.0 mi NE 12.7 mph - N/A   Overcast
5:53 PM -18.0 °F -41.6 °F -24.0 °F 74% 30.03 in 10.0 mi ENE 13.8 mph - N/A   Scattered Clouds
6:53 PM -20.9 °F -43.3 °F -27.9 °F 70% 30.03 in 10.0 mi ENE 11.5 mph - N/A   Clear
7:53 PM -18.9 °F -42.8 °F -25.1 °F 74% 30.04 in 8.0 mi NE 13.8 mph - N/A   Clear
8:53 PM -20.9 °F -43.3 °F -27.0 °F 73% 30.04 in 10.0 mi ENE 11.5 mph - N/A   Clear
9:53 PM -22.0 °F -45.7 °F -29.0 °F 70% 30.04 in 10.0 mi NE 12.7 mph - N/A   Clear
10:53 PM -22.0 °F -43.6 °F -27.9 °F 74% 30.04 in 10.0 mi ENE 10.4 mph - N/A   Clear
11:10 PM -23.8 °F -45.8 °F -29.2 °F 76% 30.04 in 10.0 mi ENE 10.4 mph - N/A   Scattered Clouds
11:19 PM -20.2 °F -43.4 °F -27.4 °F 69% 30.03 in 7.0 mi NE 12.7 mph - N/A   Mostly Cloudy
11:53 PM -20.0 °F -43.2 °F -27.0 °F 70% 30.05 in 7.0 mi NE 12.7 mph - N/A   Mostly Cloudy